Theta_e
318 319 323 318 314 315 316 316 318 321 326 323 317 326 337 329 322 330 339 339 341 342 339 337 339 339 338 337 335 335 334 333 334 334 335 335 334 333 332 330 330 329 327 325 324 322 321 319 318 317 316 315 315 314 314 313 313 313 313 312 311 310 310 309 309 308 307 306 305 304 304 304 304 303 303 302 302 300 297 294 293 294 294 295 296 299 302
321 324 325 319 313 314 313 317 322 324 329 326 320 331 338 327 326 340 343 339 343 343 336 334 336 337 337 336 335 335 334 334 335 335 335 335 333 332 332 330 329 328 327 325 324 322 320 318 317 316 315 314 314 313 313 312 312 312 312 311 310 310 309 309 308 307 306 306 305 304 304 304 303 303 302 302 301 298 294 293 293 294 294 295 296 299 301
320 326 327 318 314 317 314 317 326 328 325 322 319 326 330 326 330 337 336 336 341 341 337 337 339 339 338 336 335 335 335 334 335 335 334 334 333 332 331 330 329 328 326 325 323 321 320 318 317 316 315 314 313 313 312 312 312 311 311 311 310 309 309 308 307 306 305 305 304 304 304 304 303 303 302 302 301 297 294 293 294 294 294 295 296 298 300
318 324 327 320 320 323 314 313 323 328 325 320 318 322 326 329 336 337 334 335 340 340 339 340 341 339 338 337 335 335 335 335 335 335 334 333 332 331 330 329 329 327 326 325 323 321 319 318 317 316 315 314 313 312 312 311 311 311 310 310 309 309 309 307 306 306 305 305 304 304 304 304 303 302 302 301 299 295 293 293 294 294 294 295 296 297 299
318 322 327 323 318 317 313 318 327 328 326 321 318 319 321 326 337 342 338 336 337 336 337 340 340 338 337 336 335 335 335 334 334 334 334 333 332 331 330 329 328 327 325 324 323 321 319 318 317 316 315 314 313 312 312 311 310 310 309 309 309 308 308 307 306 305 305 304 304 303 303 303 303 302 302 300 297 293 292 293 293 294 294 295 296 297 298
320 325 328 321 316 317 321 331 335 328 324 325 321 318 318 322 330 335 337 339 338 334 336 341 340 338 337 335 334 334 334 334 334 334 333 333 332 331 330 329 328 327 325 324 323 321 319 318 317 316 315 314 313 312 312 311 310 309 309 308 308 307 307 306 305 305 304 304 303 303 303 303 302 302 301 299 297 294 292 292 293 293 294 295 296 297 298
324 329 329 315 315 325 331 335 334 328 326 329 329 324 323 327 328 328 335 346 345 337 335 337 336 335 335 334 333 334 334 333 334 333 333 333 331 331 330 329 328 326 324 323 322 320 319 318 317 316 315 314 313 312 311 310 309 309 308 308 307 307 306 305 305 304 304 303 303 303 303 303 302 302 301 300 298 295 292 292 293 293 293 294 296 297 298
323 329 332 324 322 328 331 331 329 325 322 324 328 326 324 328 328 327 336 345 340 334 335 337 338 336 335 335 333 332 333 333 333 333 333 332 331 331 329 328 327 325 324 323 322 320 319 318 317 316 314 314 312 311 310 310 309 308 308 307 307 306 305 305 304 304 303 303 303 303 303 303 302 302 301 301 299 296 292 292 293 293 293 294 295 296 297
325 329 330 330 327 324 326 327 324 322 319 322 331 330 323 326 327 324 331 338 333 334 340 341 340 338 337 338 336 333 333 333 332 332 332 331 330 330 329 327 327 325 324 323 322 320 319 318 316 316 314 313 312 311 310 309 309 308 307 307 306 306 305 304 304 303 303 303 303 303 303 303 302 302 301 301 300 296 293 292 292 292 293 293 293 294 295
329 336 332 328 326 325 331 335 332 332 327 325 334 333 325 330 330 322 329 338 334 336 343 340 337 338 340 341 339 335 333 332 332 332 331 330 329 327 327 326 325 324 323 322 321 320 319 317 316 315 314 313 312 311 310 309 308 308 307 307 306 305 304 304 304 303 303 303 303 303 303 303 302 302 301 302 301 298 293 291 292 291 291 291 291 291 292
326 337 335 325 322 324 331 335 334 332 326 323 328 327 323 333 334 324 329 339 336 335 339 337 337 340 344 345 339 334 333 331 331 332 331 330 327 325 326 326 324 323 322 321 321 320 318 316 316 315 314 313 312 311 310 309 308 307 307 307 306 305 304 304 303 303 303 303 303 303 303 303 302 302 302 302 302 300 295 291 291 291 291 292 292 291 291
321 328 326 321 322 323 325 330 331 327 323 322 322 323 327 338 340 329 328 335 336 334 334 334 338 342 344 344 338 333 332 331 329 330 330 329 326 324 324 325 323 322 322 320 320 319 318 316 315 315 314 312 312 311 310 309 308 307 307 307 306 305 304 303 303 303 303 303 303 302 303 303 303 302 302 302 302 301 296 291 291 293 294 295 295 294 293
322 322 318 318 326 327 325 328 330 325 323 322 324 329 335 340 337 333 333 333 331 333 334 335 339 339 338 340 339 333 331 331 330 328 326 325 325 324 323 324 323 321 320 320 320 319 318 316 314 314 314 312 311 311 309 309 308 307 307 306 305 304 304 303 303 303 302 302 302 302 302 302 302 303 303 302 302 302 298 293 292 295 296 297 298 297 296
320 324 325 323 325 327 326 327 329 326 322 325 331 332 333 333 331 333 337 334 329 331 335 336 337 336 336 341 340 333 330 331 331 328 325 323 324 323 322 322 322 321 320 319 319 318 317 315 314 313 313 312 311 310 309 309 308 307 307 306 305 304 303 303 302 302 302 302 302 302 302 302 302 302 303 302 302 302 300 296 294 295 296 297 297 298 298
319 325 328 324 326 330 327 325 328 327 324 330 338 335 329 331 333 333 337 336 329 329 334 336 335 334 336 339 337 331 329 330 329 327 326 324 323 321 320 320 320 320 320 319 318 318 316 315 314 313 313 312 311 310 309 309 308 307 307 306 305 303 303 302 302 302 302 302 302 302 302 301 302 302 302 302 302 302 302 299 296 295 296 297 297 297 298
323 326 325 325 331 334 328 325 329 329 325 328 339 340 332 332 334 332 336 338 332 329 332 334 332 332 335 337 333 329 329 329 328 327 325 323 322 320 320 319 320 319 319 318 318 317 316 314 313 313 313 312 311 310 310 309 308 307 306 305 304 303 303 302 302 301 301 302 302 302 301 301 301 301 301 301 301 301 301 300 297 295 296 297 297 297 298
322 324 327 330 332 331 327 327 330 332 329 330 337 339 334 332 332 331 333 337 336 332 331 330 330 332 334 333 329 328 329 328 326 326 325 322 321 320 319 319 319 319 319 318 317 316 315 314 313 313 313 312 311 310 310 309 308 306 305 304 304 303 302 302 301 301 301 301 301 301 301 301 301 301 300 299 299 300 300 298 296 296 297 297 297 298 298
322 324 328 328 327 329 329 327 327 329 330 331 334 336 333 330 331 331 331 333 336 335 332 330 331 333 334 332 328 327 327 326 325 325 324 322 320 319 319 318 318 319 319 318 316 315 314 313 313 312 312 312 311 310 309 309 307 306 304 304 304 302 302 301 301 300 301 301 301 301 301 301 301 301 299 297 296 297 297 297 297 297 298 298 298 298 299
329 329 329 327 324 328 330 327 325 326 328 329 331 332 331 329 331 335 334 332 331 331 332 334 335 334 333 331 329 327 326 325 325 325 323 321 319 318 318 318 318 318 318 316 315 314 313 313 313 312 312 312 311 310 309 308 306 305 304 304 303 302 301 301 300 300 300 300 300 301 301 301 301 300 299 298 297 296 296 297 298 298 298 299 299 299 299
329 326 326 326 325 326 328 328 326 325 326 330 331 329 328 329 330 332 333 333 333 334 334 337 336 332 328 328 328 327 325 324 323 324 322 319 318 318 318 317 318 318 317 316 315 313 313 313 312 312 312 311 311 309 308 307 306 305 305 304 303 301 301 301 300 300 300 300 300 301 301 301 300 300 299 299 299 299 298 299 299 299 299 299 299 300 300
327 322 322 325 327 326 327 328 329 327 327 331 333 332 332 335 333 332 331 331 333 335 333 332 335 332 327 325 326 325 324 323 323 321 319 317 317 317 317 317 317 317 316 315 314 313 313 312 312 312 311 311 310 309 307 306 305 305 304 303 302 301 301 301 301 300 300 300 301 301 301 300 300 300 300 300 300 300 300 300 300 300 300 300 300 300 300
330 328 327 328 329 329 327 326 327 327 326 330 335 334 334 335 334 333 332 329 329 330 326 326 334 336 328 323 324 324 323 323 321 318 316 315 316 316 316 316 317 317 316 315 314 313 313 312 312 312 311 310 310 309 307 306 305 305 304 302 301 301 301 301 301 301 300 300 301 301 301 300 300 300 300 300 301 301 300 300 300 300 300 300 300 301 301
333 332 332 330 330 330 327 324 325 325 326 331 334 330 329 331 331 333 334 330 330 331 326 321 328 336 331 323 323 324 322 319 317 316 315 315 315 315 315 315 315 315 315 314 313 312 312 312 311 311 310 310 309 308 307 306 306 305 304 302 301 301 301 301 301 301 300 300 301 301 301 300 300 300 300 300 300 301 300 300 300 300 300 300 300 301 301
326 329 333 333 332 330 325 323 324 323 325 330 332 327 326 327 328 331 332 329 329 332 330 323 321 326 328 323 321 324 322 316 314 315 315 315 315 315 315 315 314 314 313 313 313 312 312 311 311 310 310 309 308 307 307 306 305 305 304 302 301 301 301 301 301 301 301 301 301 301 301 300 300 300 300 300 300 300 300 300 300 300 300 300 301 301 302
324 328 332 331 331 328 324 322 322 322 325 330 329 327 326 325 326 329 331 331 329 328 332 331 322 319 322 321 318 320 320 315 313 315 315 314 314 314 314 314 313 313 313 312 312 312 311 311 311 310 309 309 308 307 306 306 305 305 303 302 302 301 301 301 301 301 301 301 301 301 301 300 300 300 300 300 300 300 300 300 300 300 301 301 301 301 302
324 325 326 325 324 323 322 323 322 322 325 327 325 324 325 325 325 325 323 325 324 321 326 335 329 319 319 318 315 316 316 314 314 314 313 312 313 312 313 314 313 313 313 312 311 311 311 310 310 309 309 308 307 307 306 305 305 305 304 303 302 302 302 301 301 301 301 301 301 301 301 301 300 300 300 300 300 300 300 300 300 301 301 301 300 300 300
323 323 325 325 323 322 322 324 323 320 322 325 327 326 321 314 315 317 316 315 316 313 315 321 322 318 317 317 315 315 315 313 313 313 312 312 312 313 313 314 313 312 312 311 311 311 311 310 310 309 308 308 307 306 306 305 305 304 304 302 302 302 302 302 301 301 301 301 301 301 301 300 300 300 300 300 300 300 300 300 300 301 301 301 300 299 299
324 325 328 331 329 325 323 322 321 320 321 322 322 321 317 314 317 324 325 322 321 318 314 313 314 317 318 317 314 314 314 312 312 312 312 312 312 313 313 313 312 312 311 311 311 311 310 310 309 309 308 308 307 306 306 305 305 304 303 302 302 302 302 302 301 301 301 301 301 301 301 300 301 300 300 300 301 300 300 300 300 301 301 300 299 298 298
327 328 331 332 329 326 322 320 320 322 322 319 317 317 321 323 326 329 329 325 326 327 321 314 314 316 316 314 314 313 313 313 313 312 312 312 312 313 313 312 312 311 311 310 310 310 309 309 309 308 308 308 307 306 306 305 304 304 303 302 302 302 302 301 301 301 301 301 301 301 301 301 300 300 300 300 300 300 300 300 300 301 300 299 298 297 297
324 325 328 327 325 324 322 321 322 323 323 323 324 324 325 327 327 327 325 322 324 326 320 314 314 316 313 312 313 313 313 314 313 312 313 313 312 312 312 311 310 309 309 310 310 309 309 309 308 308 308 308 307 306 306 305 304 304 303 303 303 302 302 301 301 301 301 301 301 301 301 300 300 299 299 300 300 300 300 300 300 300 300 299 299 298 299
320 320 322 323 323 323 324 325 324 321 320 324 327 326 325 327 326 325 325 324 323 321 317 314 316 315 312 311 313 314 313 314 313 313 313 312 312 312 312 311 310 309 309 310 310 309 309 309 308 309 309 308 307 306 305 304 304 303 303 303 302 302 302 301 301 301 301 301 301 301 300 300 299 299 300 300 300 300 300 300 300 300 300 300 300 300 299
320 318 318 318 320 322 323 324 323 321 321 324 325 322 322 324 323 322 324 323 319 316 317 318 316 312 310 311 313 314 314 313 313 312 312 312 312 312 312 312 312 311 311 311 310 310 309 309 308 309 308 308 307 306 305 304 304 303 303 303 302 302 302 301 301 301 301 301 301 301 300 300 299 299 299 300 300 300 300 299 300 300 299 299 300 299 298
320 319 317 317 318 320 321 321 320 320 320 320 319 317 316 318 320 320 318 315 315 318 319 316 310 308 309 312 313 312 312 312 312 311 311 311 311 312 311 311 311 311 310 311 310 310 309 309 308 308 308 307 307 306 305 304 304 303 303 302 302 302 302 301 301 301 301 301 301 300 300 300 300 299 299 300 300 300 300 299 298 298 298 298 298 299 299
320 321 321 320 320 321 321 321 321 321 318 315 314 314 314 313 315 316 312 310 315 321 316 308 307 309 311 311 311 310 310 313 313 311 309 309 311 311 311 310 310 310 310 311 310 309 309 308 308 308 308 307 306 305 304 304 303 303 303 302 302 302 302 301 301 301 301 301 301 300 300 300 300 300 300 300 300 299 299 299 299 298 297 297 298 299 300
321 322 323 323 323 324 324 323 321 320 318 315 315 315 313 308 307 309 309 309 311 313 309 306 309 311 310 309 310 309 309 311 311 308 307 309 310 310 310 309 309 309 310 310 310 309 309 308 308 307 307 306 306 305 304 303 303 302 302 302 302 301 301 301 301 301 301 301 301 300 300 300 300 300 300 300 300 299 299 300 299 298 298 299 300 299 299
318 321 323 321 320 322 323 320 316 315 316 317 316 316 313 307 304 306 308 308 308 309 309 310 311 309 306 306 308 307 308 309 308 307 307 308 309 309 309 309 309 309 309 309 309 309 309 308 308 308 307 306 305 304 303 303 303 302 302 302 302 301 301 301 301 301 301 301 300 300 300 300 300 301 301 301 300 300 300 300 300 299 299 300 300 299 299
311 317 324 323 318 317 317 312 308 308 310 310 311 312 311 307 304 306 308 308 308 309 309 310 309 306 303 303 305 305 306 307 307 308 308 308 308 309 309 308 308 308 307 308 309 309 309 309 309 308 307 305 304 304 303 303 302 302 302 302 302 301 301 301 301 301 301 300 300 300 300 300 300 301 301 301 301 301 300 300 300 300 300 300 300 300 300
307 309 315 315 311 309 309 307 305 305 307 308 307 307 308 307 306 306 307 307 308 308 309 309 308 306 304 304 305 304 304 305 306 307 308 308 308 308 308 307 308 307 307 308 310 310 309 309 308 307 306 305 304 303 303 303 302 302 302 302 302 302 301 301 301 301 301 300 300 300 300 300 300 300 300 301 301 301 301 301 300 300 300 300 300 300 300
311 309 308 307 306 305 305 306 306 306 308 309 306 304 305 306 307 307 307 307 307 308 308 307 307 306 305 305 304 303 304 305 305 306 307 307 307 307 307 307 307 307 307 308 309 309 309 308 307 306 305 304 304 303 303 302 302 302 302 302 302 301 301 301 301 301 301 301 301 300 300 299 299 299 300 300 300 300 301 301 301 300 300 300 300 300 300
318 315 311 309 309 306 304 305 306 306 307 308 307 306 306 308 308 307 307 307 307 307 307 307 306 306 305 304 304 303 303 304 305 305 306 307 306 307 307 307 307 307 307 308 308 308 308 307 306 305 304 304 303 303 303 302 302 303 302 302 302 301 301 301 301 300 301 301 300 300 300 300 300 300 301 301 301 300 301 301 301 300 300 300 300 300 300
316 312 307 307 308 305 304 306 307 307 307 309 309 308 308 309 308 308 307 307 306 306 306 306 305 305 304 304 303 303 303 303 304 305 306 306 306 306 306 306 307 307 307 307 307 307 307 306 305 305 304 303 303 303 303 302 302 302 302 302 302 301 301 301 301 301 301 300 300 300 300 301 301 302 301 301 301 301 300 300 300 300 300 300 300 300 300
311 307 308 309 307 304 303 306 307 307 307 308 309 309 309 309 308 308 307 307 306 305 305 305 304 304 304 303 302 302 302 303 304 305 305 306 306 306 306 307 307 307 307 307 307 307 306 306 304 303 303 303 303 303 302 302 302 302 302 302 302 301 301 301 301 301 301 301 301 301 301 301 301 301 301 301 301 301 300 300 299 299 300 300 300 300 300
307 306 309 309 305 304 304 305 306 306 306 307 308 309 309 308 308 308 307 306 306 305 304 304 303 303 302 302 301 301 301 303 304 305 305 305 305 305 306 306 307 307 307 307 307 306 306 305 303 303 303 303 302 302 302 302 302 302 302 302 302 302 302 302 302 302 301 301 301 301 301 301 301 301 301 301 301 301 300 300 300 300 300 300 300 300 300
303 304 306 304 304 305 305 304 305 307 307 307 308 309 308 308 308 308 307 306 306 305 305 304 304 303 302 302 301 301 301 302 304 304 304 304 305 305 305 306 306 307 307 307 307 306 305 304 303 303 303 303 302 302 302 302 302 302 302 302 302 302 302 302 302 302 302 302 302 302 301 301 301 301 300 300 300 300 300 300 300 300 300 300 300 300 300
303 304 305 304 304 305 305 305 306 308 308 308 308 308 308 308 308 308 307 307 307 306 306 306 305 304 303 302 302 301 301 302 303 304 304 305 305 306 305 305 306 306 306 306 306 305 304 304 304 304 304 303 303 303 302 302 302 302 302 302 302 302 302 302 302 302 302 302 302 302 302 301 301 301 301 301 301 301 301 301 300 300 300 300 300 300 300
304 305 305 305 305 305 306 307 308 308 308 307 307 307 308 308 308 308 308 308 307 307 307 306 306 305 304 303 302 302 301 301 302 303 304 304 305 305 304 304 305 305 305 306 306 305 304 303 303 303 304 304 303 303 302 302 302 302 302 302 302 302 301 301 302 302 302 302 302 302 301 301 301 301 301 301 301 301 301 300 300 300 299 299 299 299 299
304 304 305 306 306 306 307 308 308 307 308 309 310 309 308 308 308 308 308 308 307 307 307 307 306 305 305 304 303 303 302 301 302 302 303 303 303 303 304 304 304 305 305 305 305 304 304 303 303 303 304 304 303 302 302 302 302 302 302 302 302 302 302 302 302 302 302 302 302 302 301 301 301 301 300 300 299 299 299 299 299 299 299 298 299 299 299
304 305 306 307 307 307 307 306 306 305 306 308 309 308 308 309 309 308 308 307 308 308 307 307 307 306 305 305 305 304 303 302 302 303 303 303 303 303 303 304 304 304 305 305 305 304 303 303 303 303 303 303 303 302 302 302 302 302 302 302 302 302 302 302 302 302 301 301 301 301 301 301 301 300 299 299 299 299 299 299 299 299 299 299 298 298 298
306 307 307 307 307 307 306 305 304 305 305 306 307 307 308 308 308 308 308 307 308 308 307 307 307 307 306 306 305 304 304 303 303 303 302 302 302 302 303 303 303 304 304 304 304 304 304 303 303 303 303 303 303 302 302 302 302 302 302 302 302 302 302 302 302 301 301 301 301 301 301 301 301 301 300 299 299 299 299 299 300 300 300 299 299 299 299
305 306 306 306 305 305 305 304 304 306 307 307 307 307 307 307 307 308 308 307 307 307 308 307 307 307 307 306 306 305 305 304 304 303 303 303 302 302 302 302 303 303 303 303 303 304 304 303 303 303 303 303 303 302 302 302 302 302 302 302 302 302 302 302 302 301 301 301 301 302 302 302 301 301 301 300 299 299 299 299 299 299 300 300 300 300 300
305 305 306 306 306 307 307 307 307 308 308 308 307 307 307 307 307 308 308 307 306 307 307 307 307 307 307 307 306 306 306 305 305 304 304 303 302 302 302 302 302 303 303 303 303 303 303 304 304 304 303 303 303 303 303 302 302 302 303 302 302 302 302 302 301 301 301 302 302 302 302 301 301 301 301 301 300 300 299 299 299 299 299 300 300 299 299
307 307 307 307 307 306 307 307 307 307 308 308 307 307 307 307 307 307 307 307 307 307 307 307 307 307 307 307 307 307 306 306 306 305 304 304 303 303 302 302 302 302 302 302 302 302 302 303 303 303 303 303 303 303 303 303 303 303 303 302 302 302 302 302 301 302 302 302 302 302 301 300 300 300 300 300 300 300 300 300 299 299 299 299 299 299 299
Wind_Speed
6 5 6 6 7 7 8 10 9 7 7 10 9 7 7 8 8 6 7 8 10 9 9 12 13 13 13 12 11 10 11 12 12 13 13 12 12 13 14 15 15 15 15 14 16 20 22 25 26 26 25 26 27 28 28 29 29 29 29 30 30 30 29 28 28 27 27 27 27 26 25 25 25 23 21 18 15 13 12 14 16 18 18 18 19 20 20
4 4 4 6 8 7 8 10 9 9 10 10 9 6 6 8 6 5 7 11 10 8 8 10 9 8 8 8 9 10 13 14 14 15 15 14 14 15 16 16 16 15 15 14 17 20 22 24 26 26 26 26 27 28 29 29 29 30 30 30 30 30 29 28 28 27 27 28 27 26 26 26 25 24 21 18 16 14 14 16 17 18 18 18 19 19 20
4 6 3 5 8 7 7 6 6 8 8 6 5 2 3 5 2 2 7 6 7 6 3 3 4 7 9 9 11 12 13 15 16 16 15 15 15 15 15 16 15 14 13 14 16 20 23 26 27 27 26 27 28 29 29 30 30 30 31 31 31 30 29 29 28 28 28 28 28 27 27 27 26 24 21 18 16 15 15 17 17 17 17 17 18 18 18
3 6 4 5 7 8 8 4 5 7 7 5 4 3 4 6 5 5 8 3 6 5 4 6 6 9 12 12 12 12 11 14 16 16 16 16 16 16 15 15 14 14 14 15 16 20 23 26 28 28 28 28 28 29 30 31 31 32 31 31 31 30 30 29 29 29 29 29 29 28 28 28 26 24 21 19 17 16 16 17 17 17 17 17 17 17 17
3 5 1 4 8 8 3 3 6 7 5 2 2 2 1 4 7 7 5 5 6 4 7 8 7 8 10 11 13 13 13 14 15 16 17 17 17 17 16 16 16 16 16 17 20 23 25 28 29 30 31 30 29 31 33 32 32 33 32 32 32 31 30 31 31 30 30 30 30 30 29 28 27 25 22 19 17 16 16 16 16 17 17 17 17 17 17
3 6 3 3 6 4 5 6 6 7 5 6 5 1 2 1 2 3 3 3 4 6 8 11 12 12 13 14 14 14 14 14 14 15 16 16 16 15 15 16 16 14 15 18 21 24 26 29 30 31 32 32 32 33 34 33 34 34 33 32 32 31 31 32 31 31 31 31 30 30 29 29 27 25 23 20 17 16 16 16 17 17 17 17 17 17 17
2 3 4 5 5 6 7 6 4 4 6 10 10 4 2 3 3 1 2 6 8 10 9 10 11 11 10 9 10 12 13 14 15 16 15 14 14 14 14 15 13 13 15 19 21 24 27 29 29 30 31 31 30 31 32 34 34 33 33 32 32 32 32 32 32 32 32 31 30 30 30 29 28 26 24 21 18 16 15 16 17 17 17 18 17 17 16
1 3 4 5 6 6 5 5 3 2 3 6 8 6 5 4 3 0 3 5 8 8 4 2 3 3 4 6 3 6 9 11 13 15 15 16 16 16 16 16 17 19 22 25 27 28 29 30 30 30 30 30 30 29 30 32 32 32 32 31 31 32 32 32 33 33 33 32 31 31 31 30 29 28 25 22 19 17 16 17 18 18 18 18 17 16 16
3 3 2 1 1 2 3 2 1 3 2 4 6 4 3 4 0 3 4 4 5 6 5 5 6 7 7 4 1 4 8 10 11 12 12 14 15 16 17 19 22 24 27 28 28 29 29 30 31 31 30 30 30 29 29 30 30 31 31 30 31 32 32 33 34 33 34 34 32 32 31 31 30 29 26 24 21 19 18 19 19 19 19 18 16 15 15
2 4 3 2 3 1 4 6 6 3 3 6 6 6 1 6 3 3 5 3 6 7 6 7 8 8 6 2 6 6 8 9 10 9 8 9 11 13 16 19 20 22 23 25 27 28 29 30 31 32 31 31 31 30 29 29 30 30 30 30 31 32 32 33 34 34 34 34 33 33 32 31 31 29 27 25 22 20 19 19 21 20 19 19 17 15 14
2 4 4 2 2 3 6 8 8 7 3 3 3 6 0 7 5 1 5 6 6 6 8 9 9 7 4 6 8 7 10 11 11 11 9 9 11 14 18 21 22 24 26 27 28 29 29 29 30 32 32 32 31 30 29 29 29 29 29 30 31 32 32 33 34 34 34 34 34 33 32 31 30 29 27 25 23 21 19 20 22 22 21 20 18 16 15
3 4 2 1 2 2 5 7 7 5 1 4 6 4 4 8 6 2 4 8 7 6 7 7 7 7 7 8 7 8 12 11 10 11 12 11 12 15 18 21 23 25 28 29 29 28 28 29 31 32 33 32 30 28 28 28 27 27 28 29 30 30 31 33 33 34 34 34 34 33 32 31 29 28 27 26 24 22 21 21 23 23 21 19 17 15 14
3 3 2 1 3 3 4 5 5 4 1 7 6 5 7 4 4 4 1 7 8 7 8 6 5 8 7 3 2 8 12 11 10 10 12 13 16 18 21 24 25 26 28 29 30 30 30 30 32 33 33 30 28 27 27 27 27 27 27 28 28 29 31 32 33 33 33 34 34 33 32 30 29 28 27 26 26 24 23 23 23 22 20 17 15 13 12
2 2 2 1 3 4 3 4 5 2 3 3 4 6 4 2 2 3 2 4 7 9 10 8 8 8 3 4 5 10 13 13 12 10 10 13 15 17 20 24 27 28 26 26 27 28 29 31 33 34 32 30 28 28 27 28 28 27 27 28 29 29 31 32 33 33 33 33 33 32 31 30 30 28 27 26 26 25 25 24 23 21 20 17 15 13 11
1 2 3 2 2 3 2 4 5 3 3 5 5 2 1 3 2 1 2 4 6 8 9 10 10 6 2 5 5 9 10 11 12 12 12 13 14 17 21 24 27 28 25 25 27 27 28 31 34 34 33 30 27 27 27 28 28 28 28 29 29 29 30 31 31 32 33 33 33 32 31 30 30 30 28 27 27 26 26 25 24 23 21 19 16 15 13
2 1 1 2 4 5 3 1 1 0 1 5 5 4 2 1 3 4 1 3 5 7 8 8 6 3 1 3 6 8 9 9 10 11 12 13 14 19 22 24 27 28 25 24 26 28 30 32 33 34 34 30 27 27 27 27 28 28 29 30 30 31 31 31 31 31 32 33 32 32 31 31 31 30 29 27 27 27 27 26 26 25 22 20 19 17 15
3 4 5 5 4 5 4 1 3 1 2 2 4 5 4 2 1 3 3 2 5 7 6 5 4 3 1 2 5 8 9 10 11 11 12 14 17 20 21 24 27 27 25 25 25 26 28 31 32 33 33 30 29 28 27 28 29 30 31 33 33 33 32 32 32 32 32 32 32 32 32 32 32 31 29 28 28 28 28 27 27 26 23 22 20 19 17
0 1 2 2 2 4 5 3 1 1 2 1 2 5 5 3 1 1 3 3 4 6 6 6 5 4 3 4 4 6 7 9 9 10 10 13 16 19 20 22 26 26 24 25 25 24 26 29 31 31 31 31 31 30 29 30 32 33 34 35 34 31 31 32 32 31 32 32 32 32 33 33 33 31 30 29 29 29 29 29 27 25 24 23 21 20 19
2 1 2 4 3 4 4 4 2 3 2 0 1 4 4 3 3 3 2 2 3 3 5 6 5 4 6 7 6 5 6 7 7 8 9 10 15 19 21 24 27 26 24 23 23 23 24 27 29 29 29 30 30 30 30 32 33 34 35 35 32 30 30 31 31 31 32 32 32 32 33 33 33 31 31 31 30 30 31 30 28 25 24 23 22 21 21
3 3 5 5 4 4 3 1 1 2 3 3 3 4 4 4 5 5 4 3 3 2 3 6 6 5 5 7 7 6 6 6 7 7 8 10 14 17 21 25 27 25 23 22 23 23 24 26 28 29 28 28 28 27 29 31 33 34 34 33 31 30 30 32 32 32 33 33 33 33 33 34 34 33 33 32 32 32 32 30 29 27 25 24 23 21 21
2 2 3 2 2 4 5 4 2 2 1 3 5 5 5 6 6 7 6 5 4 3 3 4 6 6 5 5 6 7 6 6 6 6 8 11 14 17 21 25 27 25 23 24 24 25 26 27 28 28 28 27 26 27 29 31 33 34 32 31 31 31 32 33 33 32 33 34 34 34 34 34 33 33 33 33 32 32 30 28 27 25 24 23 22 20 20
0 3 4 3 3 1 3 3 4 5 3 3 6 6 6 7 6 5 7 6 5 5 3 3 6 7 5 4 6 6 5 6 7 8 10 13 14 16 19 22 22 22 23 24 25 25 26 28 29 29 28 28 27 28 31 33 34 34 32 30 31 31 32 33 32 32 32 32 33 33 33 33 32 30 30 30 30 30 28 27 26 23 22 21 20 19 19
5 6 5 4 4 3 4 4 4 5 2 5 7 6 5 6 4 3 6 7 6 6 5 2 6 7 5 6 7 6 5 6 8 12 15 16 16 18 21 21 20 20 21 23 24 25 25 27 29 28 28 28 29 30 32 33 34 34 33 31 31 31 31 31 31 31 31 31 32 32 32 33 33 30 28 27 28 28 28 27 27 25 23 21 20 20 20
3 4 5 5 5 3 4 4 3 5 3 5 6 5 5 5 4 3 5 6 5 4 4 2 3 6 7 6 7 7 6 7 10 14 16 18 20 21 23 23 22 22 23 24 26 26 26 27 28 28 28 28 29 31 33 34 35 35 34 32 31 31 31 32 32 32 32 32 32 31 31 31 32 31 29 26 25 26 27 27 27 27 25 23 22 22 21
1 2 4 5 5 4 2 2 2 5 4 3 5 4 4 5 4 4 4 3 2 4 4 2 3 7 8 7 7 8 8 8 12 15 15 15 17 18 20 22 24 25 26 27 27 27 27 27 28 28 27 28 29 31 33 35 36 36 35 33 32 32 34 33 32 32 32 32 32 32 32 32 32 31 30 28 26 25 24 24 25 25 24 23 23 22 22
2 3 5 4 3 3 2 2 3 5 6 3 4 4 4 4 5 5 5 3 3 2 3 3 4 8 10 9 9 9 9 9 13 16 16 15 16 18 20 24 26 26 26 26 26 27 27 27 27 27 26 27 30 32 33 35 36 36 35 33 32 34 35 32 30 31 32 32 32 32 33 34 34 31 30 30 29 27 24 22 22 22 22 22 22 22 22
3 5 7 6 3 2 1 1 2 1 4 4 5 4 4 4 5 6 6 6 6 6 2 2 5 7 8 10 10 10 11 12 13 14 14 16 19 22 25 26 26 25 25 25 26 28 29 29 28 27 27 28 30 32 33 35 35 35 34 32 32 35 37 34 32 33 33 33 33 33 33 33 32 31 29 29 28 27 25 23 21 21 21 22 22 22 22
4 3 3 4 4 4 3 2 3 1 2 4 5 4 5 6 7 7 7 7 6 6 5 2 5 6 7 9 10 9 9 11 11 11 14 18 21 22 23 24 25 25 26 26 26 27 29 29 29 28 28 29 31 33 34 34 34 33 32 32 33 36 37 36 34 33 33 33 33 33 33 32 31 31 31 30 28 26 25 23 21 20 20 21 21 21 22
4 3 2 4 5 5 3 3 3 4 5 5 5 5 5 6 7 6 6 6 5 4 5 3 2 5 7 9 10 8 7 8 10 13 17 20 20 20 21 23 24 24 24 23 24 25 26 27 27 27 29 30 32 33 34 34 34 33 33 34 34 33 33 32 31 31 31 31 31 32 33 34 33 33 33 31 29 26 24 23 22 21 21 22 23 23 24
3 1 5 5 4 6 6 4 3 3 5 5 5 6 5 6 6 5 5 5 5 4 4 4 0 4 7 9 11 11 11 12 14 17 18 19 19 20 22 22 19 16 17 20 23 25 27 27 26 28 30 31 33 34 34 35 34 34 34 35 33 32 32 31 29 28 29 29 29 30 33 33 33 33 33 31 29 27 26 26 25 24 25 26 26 26 26
1 3 5 5 5 6 6 4 3 2 5 5 5 6 5 6 6 4 4 5 5 4 4 5 4 1 2 5 9 12 12 12 13 14 15 17 20 22 24 26 23 20 22 25 27 28 29 29 29 32 33 33 34 34 35 35 34 33 33 32 31 32 34 33 30 29 28 28 29 30 32 32 31 30 31 31 29 28 28 27 27 27 28 28 28 28 27
5 6 6 4 3 4 4 3 3 3 4 4 5 4 4 4 5 4 4 3 3 3 4 5 5 4 4 3 6 9 9 9 10 12 14 17 20 23 27 31 32 30 31 32 32 32 31 31 31 33 32 32 33 34 34 35 34 32 32 31 30 31 33 33 31 29 28 29 31 32 33 32 31 31 31 31 30 29 29 29 29 30 31 30 30 28 25
7 5 2 1 2 3 3 3 2 4 4 4 4 3 2 3 5 4 3 3 3 4 5 5 5 5 3 2 5 8 9 8 9 10 13 16 19 23 27 29 27 25 25 27 29 31 33 33 33 32 31 31 33 34 35 35 34 32 31 31 31 32 32 32 31 29 28 29 31 32 33 34 33 32 32 32 31 30 30 30 31 31 31 31 30 28 25
8 7 7 7 6 6 6 5 4 4 4 4 4 3 3 4 4 4 4 4 5 5 5 5 6 7 7 6 6 8 9 7 6 7 13 17 20 23 25 23 19 18 19 21 23 27 28 27 28 29 30 32 33 33 34 34 32 31 31 32 33 34 33 33 31 29 28 29 31 31 31 32 32 32 32 31 30 30 31 31 31 31 31 31 30 28 26
5 4 4 5 5 5 6 7 7 6 6 5 4 3 3 4 5 5 6 6 5 4 5 7 9 10 10 8 7 6 5 3 3 6 12 16 18 19 20 17 15 15 16 18 20 23 24 24 24 24 27 30 31 32 33 33 32 32 33 33 33 34 34 33 33 32 32 31 30 29 29 29 29 30 31 30 30 31 31 31 31 31 31 31 29 26 25
5 6 5 4 4 5 6 7 6 6 7 6 5 4 4 4 6 7 7 6 6 6 6 8 9 10 10 9 7 5 2 1 3 6 9 11 13 15 16 16 16 16 14 14 17 20 23 25 26 25 26 29 31 32 33 34 34 35 35 34 33 33 33 34 35 35 33 30 28 29 30 30 30 30 30 30 30 30 30 30 31 31 32 31 28 25 24
5 7 6 4 5 6 6 6 8 9 8 6 5 5 5 6 7 9 8 7 7 7 6 7 8 9 8 6 6 5 4 1 1 4 6 7 9 12 14 14 15 13 11 13 18 21 22 24 27 27 28 30 32 33 34 35 36 36 37 37 36 35 35 35 36 35 33 30 29 29 31 31 31 31 31 30 29 29 28 29 31 32 32 32 30 27 26
5 6 7 7 6 7 7 8 11 13 11 7 5 6 8 9 10 9 9 8 7 7 6 7 8 7 6 5 6 6 6 4 3 2 4 6 8 11 13 13 14 14 13 16 20 22 22 23 25 27 28 30 31 32 35 37 38 37 37 37 36 35 35 35 35 34 33 31 31 30 31 31 30 30 29 28 28 28 28 30 32 33 34 34 32 29 28
6 7 8 8 8 8 9 9 10 11 12 10 7 6 8 10 10 9 9 9 7 5 5 5 5 4 4 4 5 5 5 4 4 3 4 5 7 9 9 9 11 13 14 15 16 18 22 24 25 27 29 30 31 32 35 37 38 37 36 35 35 35 35 35 34 33 32 31 30 29 28 28 28 28 26 26 27 28 29 31 32 33 34 34 32 30 28
6 6 6 7 7 7 7 7 7 9 12 14 12 9 10 10 10 9 9 7 5 4 3 2 2 2 3 3 4 4 4 3 3 3 3 4 4 5 5 5 6 8 10 10 10 13 18 21 23 26 29 30 31 32 35 37 37 36 34 34 34 34 34 34 32 31 31 29 27 25 24 23 22 22 22 23 25 28 30 32 32 32 33 33 30 28 27
5 6 6 7 7 7 7 8 8 8 10 12 13 12 12 11 9 8 7 6 5 5 3 1 1 1 1 1 2 3 2 2 2 2 2 3 3 3 3 2 3 4 6 7 7 9 13 17 21 25 28 29 30 32 35 37 36 34 33 33 33 32 32 32 31 30 28 27 25 23 22 21 20 20 19 20 23 25 28 30 30 30 30 29 27 25 25
6 6 7 7 6 7 9 9 9 7 7 8 11 13 12 10 8 8 8 7 6 6 4 3 1 1 1 1 1 1 2 2 1 1 1 2 3 3 2 2 3 4 5 6 7 7 10 15 21 24 26 27 28 31 34 36 35 33 32 32 31 31 31 30 29 27 26 25 24 23 21 20 20 21 23 24 25 26 28 28 28 27 26 25 24 23 22
7 7 7 6 6 8 11 11 9 8 6 7 10 11 11 9 8 8 8 7 6 6 5 3 2 2 2 2 2 3 4 4 3 3 2 2 1 2 2 3 4 4 5 6 6 7 10 16 20 22 24 25 27 29 32 34 34 32 32 31 31 30 30 28 26 24 23 23 23 22 21 20 21 24 26 29 30 30 29 27 26 26 26 25 24 23 22
8 9 9 7 8 10 11 10 9 8 6 7 10 11 9 7 7 8 8 7 6 5 3 2 1 0 1 1 2 3 4 4 5 4 4 2 1 2 3 4 4 5 5 6 7 7 11 16 19 20 22 23 25 28 32 34 32 31 31 31 30 29 28 26 24 23 22 21 21 21 22 22 22 22 24 26 28 28 27 26 26 26 26 26 26 25 24
10 11 11 11 11 11 11 11 10 9 8 9 10 10 9 7 7 8 7 6 5 4 3 2 2 2 2 1 1 1 1 2 4 4 3 2 0 2 3 4 4 4 5 6 7 8 11 15 18 20 21 22 24 27 31 32 31 30 29 29 28 28 26 24 23 22 21 20 19 19 20 21 21 21 23 26 29 30 29 29 28 27 26 26 26 26 25
11 12 13 12 11 12 12 13 13 12 10 8 7 7 7 7 8 8 7 6 5 4 3 3 3 3 3 2 1 1 2 2 4 5 4 3 2 3 4 4 4 4 5 7 8 10 12 14 16 18 20 21 23 27 30 30 29 28 28 27 26 25 24 22 21 20 19 18 19 20 21 21 23 24 26 29 31 32 32 30 28 27 26 25 25 24 23
10 11 12 12 11 12 13 13 13 12 9 6 5 5 7 8 9 9 8 7 5 4 3 3 3 3 3 3 2 2 2 2 3 5 7 6 5 4 4 3 3 3 5 7 9 10 12 14 15 16 19 21 23 27 29 28 27 27 26 25 24 23 21 20 19 17 16 16 17 18 19 21 23 26 27 28 29 29 28 27 26 26 26 25 25 24 24
11 10 11 12 12 13 14 13 12 9 7 6 7 8 9 10 10 10 8 7 6 5 4 4 4 4 4 4 4 4 3 2 2 2 4 6 7 6 4 3 3 3 5 7 9 10 12 14 15 16 18 21 24 26 27 27 27 26 25 23 22 20 19 19 17 14 13 12 12 12 13 15 18 21 24 27 28 28 27 26 26 25 25 24 24 24 24
12 12 12 12 13 13 12 10 8 6 7 8 9 10 10 10 9 9 9 8 7 7 6 6 5 5 6 6 6 5 4 4 3 4 5 5 6 6 5 4 4 4 6 8 9 10 12 14 15 16 17 20 24 26 26 25 25 25 25 23 21 20 20 20 18 15 13 13 13 12 13 16 17 18 19 21 23 24 24 22 21 22 23 23 24 24 24
11 11 11 11 11 12 12 10 9 10 11 10 9 10 10 9 8 9 11 9 8 8 8 8 8 7 7 7 7 7 6 5 5 5 6 6 5 6 6 5 5 6 7 7 8 9 11 14 17 18 18 19 21 23 24 24 24 24 24 23 22 21 22 22 20 18 17 17 16 15 16 18 19 20 20 21 21 21 21 20 18 17 17 18 19 20 20
11 12 13 14 14 15 15 15 15 15 15 13 10 9 10 10 10 10 10 9 9 9 10 10 10 10 9 8 9 8 8 7 7 6 6 5 5 5 6 6 7 7 8 8 8 9 10 13 15 18 19 20 21 22 23 24 24 25 24 23 22 22 23 22 21 20 19 18 17 17 17 17 19 21 22 23 22 22 22 21 20 18 17 17 18 18 18
15 15 16 15 14 13 14 14 14 15 15 14 11 10 11 12 11 9 9 10 11 12 12 11 11 11 10 9 9 9 9 9 8 8 7 6 5 5 7 8 8 9 10 11 10 10 10 11 13 15 17 19 21 22 22 23 24 24 24 23 22 22 23 23 22 21 20 19 19 19 19 19 19 20 22 22 22 21 21 21 20 19 18 17 16 15 15
Wind_Direction
256 218 206 173 139 149 157 152 158 167 168 168 172 194 195 152 153 217 226 181 191 219 205 192 191 181 176 174 165 156 150 152 157 158 160 163 162 164 168 170 173 172 170 171 168 167 166 164 166 169 170 170 169 167 167 168 170 171 171 170 169 167 167 167 167 167 167 166 165 164 163 163 162 161 161 161 157 153 156 157 156 153 151 150 152 153 155
302 289 248 171 138 139 150 152 160 164 172 178 178 195 186 157 171 202 175 181 210 227 208 199 191 168 157 145 137 143 150 155 161 164 166 168 169 172 175 175 177 176 174 173 169 167 168 168 167 169 170 170 168 166 166 168 169 171 171 170 169 168 168 168 168 168 168 168 167 166 165 164 163 162 162 160 156 153 154 156 155 153 150 150 151 152 153
309 334 358 142 140 135 133 132 136 142 155 160 149 172 160 128 133 136 132 170 242 256 201 141 101 109 119 132 150 156 160 163 164 168 172 173 175 177 179 177 176 176 174 172 171 171 172 172 170 170 171 171 168 167 167 169 170 172 173 171 170 170 170 170 170 170 170 170 169 168 167 166 165 164 162 160 156 154 153 154 154 153 152 151 150 151 152
289 338 35 116 113 104 108 110 128 135 138 145 156 190 177 151 146 112 102 145 251 249 142 113 117 138 142 152 163 162 165 169 168 172 176 177 179 179 179 178 175 176 177 176 176 175 173 172 172 173 172 171 169 167 168 171 172 172 173 172 171 172 172 171 171 171 171 170 169 169 168 167 166 164 162 160 156 153 152 153 153 152 152 150 149 150 151
266 318 345 129 102 97 129 211 184 161 146 149 184 241 207 142 138 131 139 203 219 178 142 139 144 153 156 166 171 168 171 174 175 180 180 180 182 181 178 180 180 180 182 180 178 176 174 175 176 176 174 173 172 171 171 172 172 172 173 173 172 172 173 173 173 173 172 171 169 169 170 169 166 164 162 159 153 150 149 152 153 152 150 149 148 150 151
238 302 322 107 108 142 225 235 196 172 158 145 142 191 298 48 127 166 172 171 151 146 162 166 169 179 182 181 180 174 170 173 179 185 186 184 184 181 180 182 183 182 180 178 177 176 176 178 178 177 177 176 176 174 173 173 173 173 173 172 172 173 173 174 174 174 173 172 170 170 171 169 167 164 163 158 151 148 148 152 154 152 149 148 147 150 153
180 332 36 110 164 219 244 262 243 196 150 129 117 87 12 45 26 302 152 145 162 176 184 179 179 191 186 168 171 177 176 177 179 182 187 186 181 181 183 183 182 180 175 174 175 177 178 179 178 177 178 178 176 174 173 173 173 173 172 171 172 174 173 174 175 174 173 171 170 170 171 171 169 166 164 159 152 148 149 152 152 149 148 149 148 150 153
111 29 67 148 213 257 293 309 276 166 121 115 98 50 357 18 44 292 216 199 182 169 154 119 125 124 95 86 116 180 185 186 185 184 185 183 181 184 184 182 181 180 179 178 178 178 178 177 177 178 179 178 174 172 173 173 173 173 172 171 173 174 174 175 176 175 174 171 170 170 171 172 171 168 165 162 157 151 149 148 146 144 144 146 148 151 154
116 98 109 183 287 325 339 325 214 164 181 184 139 96 325 304 56 171 226 231 168 127 88 74 88 85 77 65 309 220 197 196 197 195 190 184 186 187 185 185 185 183 182 181 179 177 176 176 177 178 178 177 174 171 173 174 174 173 173 173 175 176 176 176 177 177 176 173 171 171 172 173 172 170 168 166 162 157 153 149 145 142 140 141 144 148 152
88 97 81 36 58 166 250 261 263 274 254 211 160 113 333 293 296 169 185 165 138 131 112 108 111 98 94 186 245 223 194 193 194 192 193 190 189 187 181 180 179 178 179 178 177 176 176 178 179 179 177 176 174 172 174 176 175 175 176 176 177 178 177 177 177 178 178 177 175 173 174 176 175 173 171 170 168 165 161 153 147 142 139 137 138 140 143
41 91 99 111 143 194 243 254 274 298 283 208 118 90 340 283 297 127 138 136 141 149 139 133 128 115 135 223 236 203 182 187 187 183 184 184 182 183 182 178 175 175 175 175 176 178 178 178 180 179 178 176 174 175 177 178 177 178 179 180 180 179 178 178 179 180 180 180 180 177 177 179 179 177 175 174 173 170 165 157 149 143 139 136 134 133 134
55 84 97 218 203 215 251 261 279 286 241 92 85 112 236 268 293 330 130 146 156 156 147 145 141 149 185 227 234 184 171 177 181 182 183 180 176 176 177 178 177 174 173 173 175 178 179 179 179 179 178 176 176 177 177 177 180 183 183 182 180 177 177 178 179 181 182 182 182 181 180 181 181 181 179 177 176 174 168 158 151 145 141 139 136 134 131
42 69 92 267 262 251 262 281 287 264 122 78 96 193 226 241 267 287 197 153 159 158 155 160 181 191 197 218 143 147 155 165 177 180 178 175 176 176 175 176 175 172 174 178 178 180 181 178 178 179 177 176 177 177 176 179 185 187 184 180 177 176 178 179 179 181 183 184 184 184 183 183 183 182 182 180 180 179 173 164 157 153 150 150 149 147 141
19 65 97 5 284 254 255 295 303 307 103 117 193 217 230 216 220 285 286 180 174 172 170 184 210 212 177 72 114 150 160 169 172 166 160 162 169 175 175 175 175 173 175 180 180 181 181 177 177 178 178 178 179 178 180 185 187 185 182 179 177 177 179 179 180 182 184 185 185 185 186 185 184 182 183 183 184 183 180 175 170 166 164 166 169 169 164
54 45 56 54 243 250 314 340 338 25 105 189 211 191 202 223 187 115 299 224 193 182 188 204 217 215 110 86 139 160 165 169 165 162 165 165 165 169 171 175 178 175 174 178 179 180 180 178 178 179 180 181 181 181 185 188 184 182 181 178 176 178 179 180 181 183 185 185 186 187 187 187 185 183 183 184 186 188 186 183 179 175 175 179 184 186 185
121 104 220 209 217 251 305 35 159 224 179 190 176 132 122 206 164 143 182 248 219 203 206 219 229 227 108 119 149 156 162 169 166 167 170 166 166 172 174 176 178 176 174 177 178 179 180 179 180 181 182 182 181 184 188 186 179 177 177 175 177 179 180 180 183 186 187 186 187 188 188 187 186 184 184 186 188 191 190 187 183 181 183 188 193 196 198
158 176 210 224 233 265 298 118 162 260 2 138 152 133 107 63 158 159 135 161 218 217 216 229 249 262 246 162 166 167 170 172 171 171 173 172 172 173 173 174 176 177 176 177 176 177 180 180 181 184 185 183 182 185 187 182 178 176 175 176 179 181 181 182 185 186 186 186 187 189 188 186 185 184 184 187 189 192 192 188 185 185 188 194 198 202 204
122 167 226 292 325 314 328 352 31 58 56 158 143 103 85 46 326 179 112 127 187 206 201 203 221 225 183 158 177 183 175 173 171 166 167 170 169 167 167 171 174 176 176 176 176 176 178 180 182 184 187 186 186 187 186 182 180 178 176 177 180 180 180 182 183 184 184 184 186 188 187 187 187 187 187 186 187 189 190 190 189 190 193 199 203 207 211
87 108 297 328 328 300 312 338 0 44 61 253 113 89 79 47 42 46 52 99 129 163 174 174 184 189 165 155 165 173 165 166 167 159 157 163 166 168 169 170 171 173 174 175 175 174 176 180 182 184 188 191 191 188 185 182 180 178 177 178 179 179 179 180 181 183 184 183 184 186 187 187 189 191 191 190 190 191 192 193 194 196 199 203 207 212 217
117 207 259 290 299 286 292 287 158 64 55 46 48 69 85 77 64 55 49 64 76 95 151 152 144 149 161 161 160 162 162 164 163 160 163 166 167 168 168 169 171 173 174 174 174 174 176 180 183 185 188 192 192 187 182 180 178 177 177 178 178 178 179 180 181 184 185 185 184 185 187 188 191 193 195 196 197 199 199 199 199 200 203 208 213 218 221
63 211 238 282 8 357 345 347 341 314 343 71 61 52 59 63 56 51 53 53 55 79 118 139 129 129 148 162 157 156 157 156 155 155 156 157 159 162 166 170 174 175 174 174 174 175 178 180 182 185 188 190 189 185 182 180 178 176 177 179 179 179 180 181 183 185 186 186 186 186 187 190 193 196 199 202 204 206 207 208 207 207 208 212 216 222 226
139 219 204 168 126 121 294 313 337 323 312 74 68 45 37 39 36 51 62 54 46 57 78 130 134 133 146 157 148 147 153 154 152 147 144 146 153 160 164 169 174 175 176 176 175 176 179 180 182 185 187 187 187 186 184 182 179 178 178 179 179 180 182 182 184 185 186 187 188 187 188 189 192 196 201 205 209 212 214 215 216 217 216 216 218 223 229
215 226 206 161 135 161 235 267 320 326 340 74 68 51 39 28 13 45 74 68 52 33 18 71 139 144 152 152 144 137 141 150 151 151 152 153 155 160 163 166 169 172 173 175 176 177 179 181 183 186 186 185 185 185 184 183 182 181 180 179 181 183 183 183 185 186 187 187 188 188 189 190 192 194 198 203 209 214 217 219 220 221 221 221 224 229 234
229 228 195 166 144 155 207 237 297 328 13 83 75 56 47 35 17 43 72 77 89 80 32 13 153 155 152 151 151 143 139 151 157 158 162 163 162 163 166 167 168 169 171 176 179 180 180 182 183 185 186 185 185 185 185 185 184 183 182 182 183 183 183 185 188 189 189 188 188 188 188 190 192 195 196 198 204 210 215 217 218 219 221 224 230 235 239
233 192 173 166 147 138 166 215 324 346 1 74 84 53 32 28 33 57 59 39 70 111 105 94 168 164 155 148 151 151 150 163 166 160 158 160 160 162 166 171 173 175 177 179 180 180 180 182 183 184 186 186 186 186 187 186 186 186 186 187 186 184 183 185 188 189 189 188 188 188 188 190 192 194 195 196 200 206 210 214 216 219 222 225 230 236 236
207 126 109 99 93 84 58 52 46 4 349 34 82 59 17 21 42 58 56 20 8 77 131 161 170 168 166 159 154 155 154 157 161 159 154 154 160 168 176 180 181 181 179 178 177 178 180 182 184 185 187 187 188 188 188 188 188 189 190 191 189 185 184 186 188 189 190 190 189 189 190 191 193 194 195 199 202 204 207 211 216 220 221 221 225 230 228
167 134 105 84 55 15 4 152 163 286 336 30 64 43 16 32 51 53 50 41 38 45 61 153 147 149 157 154 148 149 150 150 155 159 160 165 174 182 185 184 182 180 177 176 177 180 181 182 184 187 190 191 191 191 191 190 191 192 192 192 189 187 188 190 192 192 192 192 191 190 190 191 192 193 197 202 206 207 208 211 215 218 217 218 223 224 219
172 190 124 121 174 211 221 195 187 204 18 42 50 32 25 39 46 45 35 19 14 22 29 69 132 141 149 150 145 145 149 154 159 166 175 183 187 187 184 181 180 179 178 178 180 182 182 183 185 189 192 194 193 193 193 192 192 193 192 191 190 189 190 193 195 194 193 193 192 191 190 189 191 196 202 207 209 209 210 212 215 215 214 215 216 214 212
198 205 114 124 163 165 123 90 79 44 24 28 41 39 42 53 52 41 22 2 355 7 12 7 156 158 154 155 155 152 154 166 176 182 185 188 188 184 181 180 180 179 178 178 181 183 184 185 188 190 193 195 195 195 195 194 193 194 193 193 192 191 190 193 195 195 194 194 193 192 190 190 192 198 204 207 208 207 209 211 211 210 210 209 208 208 212
243 142 104 107 119 117 111 116 110 52 16 20 48 46 47 71 68 38 5 4 21 25 3 346 20 149 156 167 173 175 177 182 187 188 186 184 182 180 178 173 167 166 176 182 184 186 187 188 191 194 197 197 196 196 195 195 195 195 195 194 193 191 189 192 195 195 194 194 193 191 190 191 193 197 200 203 205 206 208 208 208 208 210 210 210 213 219
208 72 94 104 117 128 138 154 145 64 4 15 59 56 48 73 78 49 14 18 26 23 13 15 31 78 198 204 194 189 188 188 187 183 180 180 180 179 176 173 170 176 187 191 191 191 191 191 195 200 201 200 197 196 195 195 195 194 194 194 193 191 191 193 195 195 195 193 192 190 190 191 193 196 199 202 203 204 206 208 209 211 213 213 215 221 228
98 65 65 62 79 126 147 150 120 78 21 34 72 65 41 79 101 87 63 59 47 34 40 42 27 357 319 257 203 190 184 178 176 175 175 178 182 183 184 186 188 191 193 194 193 193 193 195 200 204 203 200 199 197 196 195 194 192 192 191 189 190 192 194 194 195 197 195 193 191 190 191 194 198 202 204 205 206 209 211 213 214 216 218 222 226 231
122 109 112 125 113 140 184 200 127 97 78 80 98 94 51 86 103 96 79 78 69 55 51 47 34 25 31 121 166 166 156 150 156 166 174 182 188 191 193 196 198 198 198 198 198 198 198 200 202 203 203 202 201 199 198 197 194 192 191 189 187 188 191 193 194 196 198 197 195 193 191 192 194 199 203 207 208 210 212 214 215 216 219 223 226 229 233
159 172 186 185 170 168 186 189 154 120 102 89 89 95 91 93 98 98 85 71 61 49 41 45 56 68 81 99 124 138 141 142 152 176 186 190 194 198 200 201 202 204 206 207 207 206 205 205 204 203 202 203 202 199 197 195 192 190 189 187 186 187 189 190 192 196 199 200 198 196 194 195 196 199 204 208 209 210 212 216 219 222 224 228 232 235 237
139 137 154 166 166 163 161 158 153 145 132 118 108 107 113 114 108 95 84 77 73 68 65 69 76 83 87 90 99 116 134 163 209 210 202 200 200 201 200 197 198 204 209 212 214 212 210 208 207 207 205 202 201 199 196 192 190 189 186 183 185 188 189 190 193 199 202 203 200 197 197 198 199 202 207 210 211 213 217 222 225 228 230 233 237 238 236
120 113 109 118 126 130 134 139 143 140 133 130 132 127 116 115 110 102 98 99 100 94 84 79 78 77 77 79 87 92 81 300 250 228 217 211 206 200 193 191 195 198 201 209 216 217 213 210 209 210 209 204 200 198 195 192 189 187 185 183 185 188 189 190 194 200 204 204 201 200 201 204 205 207 210 212 215 218 223 227 231 233 235 237 238 236 233
124 124 123 123 117 116 121 130 132 129 124 126 136 135 130 126 122 117 115 112 103 92 82 76 74 75 75 80 91 97 94 95 207 216 214 209 201 193 188 189 191 187 189 208 217 216 215 214 212 211 210 206 200 196 195 193 190 187 184 185 187 189 189 191 195 200 204 206 205 205 205 206 207 209 212 215 219 223 228 233 236 238 239 240 240 237 236
99 107 119 124 118 113 118 129 134 132 125 120 123 131 133 132 129 121 114 107 97 88 83 80 80 83 83 80 81 82 80 82 103 151 180 187 188 186 186 189 190 188 197 217 222 217 215 216 213 208 207 205 200 196 195 194 191 188 185 186 188 189 190 192 194 197 201 204 207 208 208 207 208 210 213 217 222 228 235 238 240 240 241 242 242 242 241
94 95 104 109 108 107 112 119 125 128 127 124 122 125 130 131 127 120 112 105 96 87 84 83 81 73 61 58 64 66 66 75 93 114 140 165 179 184 188 196 203 204 213 228 232 223 218 217 211 206 205 204 201 197 196 194 192 189 187 187 189 190 192 193 194 195 198 201 205 208 209 208 209 212 216 221 228 233 238 240 240 241 241 242 243 244 244
111 117 117 113 111 110 110 107 109 121 131 133 134 139 140 134 127 122 121 119 117 113 104 87 59 31 20 23 35 41 46 62 83 95 117 146 167 177 185 202 219 224 231 243 243 229 223 219 212 207 205 203 200 198 196 194 192 190 187 188 190 191 192 193 193 194 195 199 202 204 205 205 207 212 219 227 233 237 239 240 240 241 241 241 242 245 246
119 126 126 124 124 124 122 119 120 127 135 139 141 145 148 145 140 140 145 147 146 145 147 157 246 259 283 336 12 24 35 60 85 92 115 141 148 147 159 208 251 255 255 260 258 243 230 220 212 208 205 202 201 201 197 192 190 189 189 189 189 189 190 191 192 193 196 199 202 205 208 210 213 219 225 231 236 239 240 240 240 240 240 240 241 243 245
119 126 127 127 129 128 127 129 132 136 143 151 153 155 157 158 155 153 155 156 159 163 172 185 200 200 199 195 118 84 92 106 120 125 140 165 173 168 178 233 265 276 276 274 268 253 230 215 209 206 203 201 201 200 195 189 188 189 188 187 187 188 188 190 191 193 198 202 205 209 213 215 218 226 236 243 246 246 243 240 238 237 239 241 243 245 247
134 130 124 125 134 138 138 140 143 144 149 161 167 168 166 163 158 155 156 161 169 175 177 172 158 145 151 159 152 145 144 148 155 154 144 151 199 217 233 262 273 275 276 276 270 250 225 211 204 202 202 202 201 196 189 185 186 188 187 186 186 186 187 189 191 193 198 202 205 210 215 218 221 229 237 243 246 246 244 242 242 244 246 247 250 252 254
138 134 134 141 147 146 144 143 142 144 156 176 183 182 176 171 170 170 169 173 185 195 197 193 167 128 160 172 164 163 167 169 170 164 147 129 179 251 261 276 284 282 275 271 266 247 224 211 204 201 201 201 198 192 187 185 186 188 188 187 186 186 188 191 194 195 197 200 204 210 217 223 228 234 239 242 244 245 246 247 251 254 255 255 256 257 259
147 149 151 151 151 152 155 155 156 162 174 184 188 190 190 185 186 189 190 194 204 213 228 266 306 324 317 299 290 277 246 214 195 187 173 147 233 278 282 290 294 284 269 263 257 240 223 214 208 204 202 201 196 192 189 188 188 189 188 187 187 188 190 194 198 200 203 209 215 221 227 232 237 242 247 250 252 253 254 254 256 258 259 259 258 257 258
156 158 156 155 158 165 169 166 165 168 170 169 179 200 205 198 196 203 212 219 225 234 255 279 301 327 337 329 314 304 282 242 222 223 230 243 278 301 310 315 306 281 257 249 243 231 220 214 208 204 203 202 197 192 190 189 189 188 188 187 188 191 193 197 202 208 213 219 223 227 233 239 245 250 253 255 257 256 256 257 258 259 259 258 256 256 257
152 158 163 166 169 173 173 168 162 160 160 157 167 195 203 203 206 216 225 231 239 250 268 282 294 315 330 329 323 318 299 262 238 239 242 244 257 282 299 302 297 273 249 240 236 226 217 211 206 202 201 200 196 192 191 189 187 186 187 189 191 192 194 201 211 220 226 229 231 234 239 247 255 260 261 261 260 259 258 260 262 262 261 259 257 257 259
147 156 167 168 165 167 170 166 155 154 174 190 188 187 193 201 210 221 229 235 240 247 258 274 286 297 306 311 316 325 329 323 317 300 271 251 246 255 271 274 266 257 242 231 226 222 215 208 203 199 198 196 194 192 190 188 187 187 189 192 194 197 202 209 215 218 218 219 224 235 248 260 268 269 265 262 261 262 262 264 267 269 269 268 266 266 267
153 153 157 160 160 161 162 157 151 170 207 210 196 190 193 197 206 222 233 236 239 245 249 253 264 280 293 296 298 306 312 310 318 340 335 298 259 249 255 258 248 241 234 225 221 220 214 207 202 199 196 195 194 194 193 193 193 195 196 199 203 208 211 212 211 208 209 214 223 238 254 265 272 275 274 271 269 267 266 268 271 274 276 276 275 275 274
150 146 152 162 167 165 164 168 178 197 210 211 202 195 190 184 194 220 232 232 233 244 252 254 258 265 276 284 288 293 298 293 287 303 325 320 283 249 242 242 236 230 230 229 226 223 215 207 203 202 201 199 199 200 202 203 204 203 203 206 211 215 217 218 220 222 225 231 237 246 256 262 266 269 274 279 280 278 274 271 271 273 274 274 272 271 270
158 161 172 184 187 183 183 191 200 208 217 223 221 209 198 195 206 225 232 226 223 232 245 255 262 263 264 267 273 276 280 283 281 283 296 307 291 255 240 238 234 226 223 225 227 226 220 211 205 204 204 205 207 208 208 209 209 209 210 214 220 222 221 221 223 225 228 232 239 246 253 259 262 265 271 279 283 283 279 274 270 268 269 269 269 270 272
179 183 187 191 192 191 194 201 209 215 222 228 229 220 211 207 210 219 228 227 226 230 236 245 257 265 265 263 263 266 267 269 272 272 275 283 283 260 240 235 233 228 223 222 222 222 219 212 206 203 204 207 210 212 213 213 214 215 216 219 222 223 222 222 224 228 231 234 238 243 249 256 263 271 281 288 289 286 282 279 274 270 270 273 275 278 281